User: anonymous   Login
Location: Unspecified
(0.0000°N, 0.0000°E)
Time: 16:21:53
(UTC+00:00)
Language:

NOAA 18 - Orbit

View from above orbital plane
View from above orbital plane
View from above satellite
View from above satellite

Ground track
Ground track

The orbit data is extracted from the following two-line orbital elements,

1 28654U 05018A   18344.92633502 -.00000019 +00000-0 +14593-4 0  9996
2 28654 099.1242 023.7900 0014076 355.0014 005.1014 14.12391977698638
Epoch (UTC): 10 December 2018 22:13:55
Eccentricity: 0.0014076
inclination: 99.1242°
perigee height: 841 km
apogee height: 861 km
right ascension of ascending node: 23.7900°
argument of perigee: 355.0014°
revolutions per day: 14.12391977
mean anomaly at epoch: 5.1014°
orbit number at epoch: 69863

The dashed part of the orbit path shows where the satellite is in the earth's shadow,  

DLR